period_start,C,m1,H,J0,J1,J2,J3,J4,J5,JA,JB,JC,JD,JJ,JK,JN,#
2016-04-06 00:00:47,0.15,9.77,0.00,11.49,16.05,20.41,15.21,51.96,1008.62,2075.00,1237.19,1579.02,1785.13,600.26,615.40,48.07,0000 0000 0000 0000 000000
2016-04-06 00:05:48,0.14,9.78,0.00,11.52,16.08,20.38,15.19,52.14,1008.72,2075.00,1236.62,1578.46,1784.63,599.87,615.13,48.13,0000 0000 0000 0000 000000
2016-04-06 00:10:49,0.05,9.78,0.00,11.55,16.11,20.44,15.19,52.10,1008.79,2074.98,1236.01,1577.99,1784.01,599.97,615.19,48.18,0000 0000 0000 0000 000000
2016-04-06 00:15:51,0.13,9.79,0.00,11.59,16.14,20.45,15.12,51.94,1008.80,2074.95,1235.76,1577.42,1783.48,599.87,614.98,48.23,0000 0000 0000 0000 000000
2016-04-06 00:20:52,0.02,9.79,0.00,11.65,16.18,20.52,15.19,52.11,1008.80,2074.76,1235.06,1576.99,1782.86,599.99,614.96,48.28,0000 0000 0000 0000 000000
2016-04-06 00:25:53,0.04,9.79,0.00,11.70,16.22,20.59,15.24,51.97,1008.81,2074.36,1234.99,1576.45,1782.14,600.03,614.95,48.33,0000 0000 0000 0000 000000
2016-04-06 00:30:54,0.08,9.80,0.00,11.71,16.26,20.62,15.20,51.92,1008.84,2074.05,1234.47,1575.99,1781.69,600.02,614.93,48.38,0000 0000 0000 0000 000000
2016-04-06 00:35:55,0.16,9.80,0.00,11.73,16.30,20.69,15.12,51.92,1008.87,2074.00,1233.52,1575.19,1781.01,599.90,614.79,48.43,0000 0000 0000 0000 000000
2016-04-06 00:40:57,0.06,9.81,0.00,11.76,16.34,20.71,15.11,51.95,1008.95,2074.00,1233.07,1574.96,1780.33,599.40,614.29,48.48,0000 0000 0000 0000 000000
2016-04-06 00:45:58,0.07,9.81,0.00,11.76,16.38,20.68,15.14,52.05,1008.96,2073.98,1232.98,1574.23,1779.92,599.80,614.68,48.53,0000 0000 0000 0000 000000
2016-04-06 00:50:59,0.15,9.82,0.00,11.73,16.42,20.67,15.13,52.02,1009.05,2073.91,1232.07,1573.78,1779.08,599.75,614.70,48.58,0000 0000 0000 0000 000000
2016-04-06 00:56:00,0.13,9.83,0.00,11.78,16.45,20.70,15.21,52.16,1009.13,2073.66,1230.96,1573.03,1778.26,600.05,614.91,48.63,0000 0000 0000 0000 000000
2016-04-06 01:01:02,0.12,9.83,0.00,11.85,16.48,20.74,15.11,51.99,1009.12,2073.25,1230.07,1572.23,1777.42,599.78,614.54,48.68,0000 0000 0000 0000 000000
2016-04-06 01:06:03,0.07,9.83,0.00,11.89,16.50,20.73,15.15,51.98,1009.21,2073.05,1229.52,1571.85,1776.89,599.65,614.44,48.73,0000 0000 0000 0000 000000
2016-04-06 01:11:04,0.13,9.84,0.00,11.93,16.52,20.85,15.19,51.95,1009.29,2073.02,1228.83,1571.08,1776.08,600.17,614.90,48.78,0000 0000 0000 0000 000000
2016-04-06 01:16:05,0.14,9.85,0.00,11.98,16.54,20.87,15.17,51.89,1009.30,2073.00,1228.03,1570.70,1775.47,599.79,614.34,48.83,0000 0000 0000 0000 000000
2016-04-06 01:21:07,0.12,9.86,0.00,11.95,16.57,20.93,15.20,51.84,1009.30,2073.00,1227.32,1570.03,1774.92,600.32,615.00,48.88,0000 0000 0000 0000 000000
2016-04-06 01:26:08,0.16,9.86,0.00,11.92,16.59,20.95,15.22,52.00,1009.29,2072.99,1226.52,1569.54,1774.00,600.15,614.97,48.93,0000 0000 0000 0000 000000
2016-04-06 01:31:09,0.47,9.88,0.00,11.99,16.61,21.00,15.10,51.83,1009.33,2072.99,1224.19,1567.65,1772.11,599.90,614.54,48.98,0000 0000 0000 0000 000000
2016-04-06 01:36:11,0.46,9.90,0.00,12.04,16.63,21.04,15.15,51.86,1009.36,2072.98,1221.54,1565.63,1769.89,599.90,614.54,49.03,0000 0000 0000 0000 000000
2016-04-06 01:41:12,0.40,9.93,0.00,12.09,16.65,21.03,15.09,51.70,1009.43,2072.98,1219.34,1563.71,1767.83,599.72,614.05,49.08,0000 0000 0000 0000 000000
2016-04-06 01:46:13,0.40,9.95,0.00,12.11,16.68,21.02,15.15,51.77,1009.38,2072.96,1217.32,1562.01,1765.92,600.23,614.60,49.14,0000 0000 0000 0000 000000
2016-04-06 01:51:15,0.36,9.97,0.00,12.09,16.71,21.06,15.07,51.92,1009.50,2072.85,1215.00,1560.25,1763.98,599.91,614.38,49.19,0000 0000 0000 0000 000000
2016-04-06 01:56:16,0.29,9.98,0.00,12.13,16.75,21.14,15.16,51.92,1009.69,2072.49,1213.28,1558.63,1762.25,599.92,614.36,49.24,0000 0000 0000 0000 000000
2016-04-06 02:01:18,0.34,10.00,0.00,12.21,16.79,21.06,15.16,51.92,1009.55,2072.19,1211.43,1556.95,1760.41,600.14,614.38,49.29,0000 0000 0000 0000 000000
2016-04-06 02:06:19,0.45,10.02,0.00,12.27,16.82,21.07,15.07,52.02,1009.54,2072.04,1208.98,1554.91,1758.15,599.87,613.99,49.34,0000 0000 0000 0000 000000
2016-04-06 02:11:20,0.51,10.04,0.00,12.32,16.86,21.11,15.12,51.99,1009.64,2072.00,1206.32,1552.85,1755.83,599.77,613.79,49.39,0000 0000 0000 0000 000000
2016-04-06 02:16:21,0.36,10.07,0.00,12.29,16.90,21.19,15.13,51.82,1009.73,2072.00,1204.08,1551.12,1753.85,599.96,614.18,49.44,0000 0000 0000 0000 000000
2016-04-06 02:21:23,0.39,10.09,0.00,12.34,16.93,21.23,15.17,52.03,1009.78,2071.99,1202.09,1549.53,1752.06,600.02,614.11,49.49,0000 0000 0000 0000 000000
2016-04-06 02:26:24,0.32,10.11,0.00,12.42,16.96,21.25,15.07,51.77,1009.78,2071.97,1200.19,1548.04,1750.42,600.21,614.12,49.54,0000 0000 0000 0000 000000
2016-04-06 02:31:26,0.28,10.12,0.00,12.48,16.98,21.30,15.05,51.67,1009.78,2071.76,1198.46,1546.68,1748.87,600.01,613.91,49.59,0000 0000 0000 0000 000000
2016-04-06 02:36:27,0.17,10.13,0.00,12.49,17.01,21.34,15.16,51.73,1009.78,2071.36,1197.22,1545.66,1747.70,600.14,613.97,49.64,0000 0000 0000 0000 000000
2016-04-06 02:41:28,0.25,10.14,0.00,12.50,17.03,21.34,15.11,51.73,1009.78,2071.10,1195.59,1544.66,1746.55,600.07,613.86,49.69,0000 0000 0000 0000 000000
2016-04-06 02:46:30,0.16,10.15,0.00,12.56,17.05,21.39,15.23,51.83,1009.79,2071.02,1194.52,1543.92,1745.66,600.36,614.08,49.74,0000 0000 0000 0000 000000
2016-04-06 02:51:31,0.16,10.16,0.00,12.59,17.07,21.48,15.05,51.72,1009.82,2071.01,1193.63,1543.11,1744.97,599.44,613.02,49.79,0000 0000 0000 0000 000000
2016-04-06 02:56:32,0.16,10.17,0.00,12.57,17.09,21.48,15.16,51.74,1009.89,2071.00,1192.71,1542.66,1744.16,600.02,613.74,49.84,0000 0000 0000 0000 000000
2016-04-06 03:01:33,0.14,10.17,0.00,12.64,17.12,21.51,15.12,51.66,1010.12,2071.00,1191.77,1542.01,1743.48,600.30,614.09,49.89,0000 0000 0000 0000 000000
2016-04-06 03:06:35,0.12,10.18,0.00,12.73,17.14,21.53,15.17,51.66,1010.26,2071.00,1190.96,1541.39,1742.96,600.27,613.86,49.94,0000 0000 0000 0000 000000
2016-04-06 03:11:36,0.13,10.19,0.00,12.79,17.15,21.57,15.14,51.60,1010.27,2070.98,1190.10,1540.97,1742.14,600.07,613.43,50.00,0000 0000 0000 0000 000000
2016-04-06 03:16:37,0.19,10.20,0.00,12.81,17.18,21.59,15.10,51.56,1010.27,2070.93,1189.17,1540.17,1741.47,600.04,613.40,50.05,0000 0000 0000 0000 000000
2016-04-06 03:21:38,0.13,10.20,0.00,12.87,17.19,21.59,15.16,51.64,1010.30,2070.86,1188.25,1539.73,1740.77,599.92,613.24,50.10,0000 0000 0000 0000 000000
2016-04-06 03:26:39,0.12,10.21,0.00,12.96,17.22,21.70,15.09,51.69,1010.47,2070.65,1187.35,1539.02,1740.01,600.09,613.25,50.15,0000 0000 0000 0000 000000
2016-04-06 03:31:41,0.13,10.22,0.00,12.97,17.24,21.72,15.13,51.77,1010.72,2070.23,1186.37,1538.30,1739.22,600.16,613.42,50.20,0000 0000 0000 0000 000000
2016-04-06 03:36:42,0.16,10.22,0.00,12.99,17.26,21.75,15.11,51.78,1010.75,2070.07,1185.35,1537.69,1738.46,600.05,613.40,50.25,0000 0000 0000 0000 000000
2016-04-06 03:41:43,0.25,10.24,0.00,13.08,17.29,21.74,15.13,51.85,1010.76,2070.03,1183.94,1536.72,1737.40,600.07,613.09,50.30,0000 0000 0000 0000 000000
2016-04-06 03:46:45,0.26,10.25,0.00,13.14,17.32,21.80,15.05,51.80,1010.82,2070.01,1182.43,1535.66,1736.16,599.84,612.87,50.35,0000 0000 0000 0000 000000
2016-04-06 03:51:46,0.29,10.26,0.00,13.17,17.35,21.80,15.14,51.74,1011.04,2070.00,1180.82,1534.69,1734.80,600.07,613.25,50.40,0000 0000 0000 0000 000000
2016-04-06 03:56:47,0.28,10.28,0.00,13.24,17.38,21.87,15.14,51.69,1011.23,2070.00,1179.16,1533.60,1733.51,600.02,613.09,50.45,0000 0000 0000 0000 000000
2016-04-06 04:01:49,0.28,10.29,0.00,13.31,17.42,21.90,15.10,51.81,1011.23,2070.00,1177.61,1532.53,1732.32,600.06,613.01,50.50,0000 0000 0000 0000 000000
2016-04-06 04:06:50,0.22,10.31,0.00,13.32,17.45,21.97,15.19,51.99,1011.20,2069.97,1176.19,1531.59,1731.24,600.20,613.11,50.55,0000 0000 0000 0000 000000
2016-04-06 04:11:51,0.26,10.32,0.00,13.35,17.49,22.01,15.12,51.90,1011.12,2069.94,1174.77,1530.63,1730.10,599.76,612.47,50.60,0000 0000 0000 0000 000000
2016-04-06 04:16:53,0.19,10.33,0.00,13.43,17.53,22.02,15.15,51.90,1011.23,2069.62,1173.35,1529.53,1728.95,600.14,612.80,50.65,0000 0000 0000 0000 000000
2016-04-06 04:21:54,0.15,10.34,0.00,13.49,17.57,22.09,15.08,51.67,1011.24,2069.08,1172.06,1528.57,1727.93,599.97,612.54,50.70,0000 0000 0000 0000 000000
2016-04-06 04:26:56,0.15,10.35,0.00,13.49,17.62,22.13,15.08,51.71,1011.24,2069.03,1171.05,1527.89,1727.06,599.91,612.57,50.75,0000 0000 0000 0000 000000
2016-04-06 04:31:57,0.20,10.36,0.00,13.51,17.66,22.19,15.12,51.78,1011.24,2069.00,1170.10,1527.05,1726.28,600.01,612.66,50.80,0000 0000 0000 0000 000000
2016-04-06 04:36:58,0.21,10.37,0.00,13.59,17.71,22.21,15.14,51.73,1011.25,2069.00,1169.05,1526.22,1725.40,600.56,612.77,50.85,0000 0000 0000 0000 000000
2016-04-06 04:41:59,0.22,10.37,0.00,13.65,17.75,22.25,15.10,51.73,1011.27,2068.98,1167.94,1525.43,1724.45,599.99,612.23,50.91,0000 0000 0000 0000 000000
2016-04-06 04:47:01,0.21,10.39,0.00,13.66,17.79,22.25,15.17,51.75,1011.42,2068.80,1166.72,1524.54,1723.44,600.13,612.44,50.96,0000 0000 0000 0000 000000
2016-04-06 04:52:02,0.10,10.39,0.00,13.70,17.83,22.33,15.10,51.83,1011.64,2068.22,1165.64,1523.77,1722.49,599.84,612.16,51.01,0000 0000 0000 0000 000000
2016-04-06 04:57:04,0.16,10.40,0.00,13.79,17.88,22.41,15.06,51.78,1011.73,2068.03,1164.60,1522.98,1721.63,599.81,612.06,51.06,0000 0000 0000 0000 000000
2016-04-06 05:02:05,0.11,10.41,0.00,13.83,17.92,22.40,15.08,51.82,1011.73,2068.01,1163.98,1522.18,1721.00,599.87,611.94,51.11,0000 0000 0000 0000 000000
2016-04-06 05:07:07,0.14,10.42,0.00,13.85,17.96,22.43,15.05,51.84,1011.73,2068.00,1163.18,1521.91,1720.21,599.95,612.16,51.16,0000 0000 0000 0000 000000
2016-04-06 05:12:08,0.16,10.42,0.00,13.91,18.00,22.52,15.04,51.72,1011.73,2068.00,1162.56,1521.09,1719.76,600.25,612.34,51.21,0000 0000 0000 0000 000000
2016-04-06 05:17:09,0.05,10.43,0.00,13.98,18.04,22.52,15.06,51.82,1011.74,2067.98,1161.99,1520.90,1719.04,600.05,611.85,51.26,0000 0000 0000 0000 000000
2016-04-06 05:22:10,0.14,10.43,0.00,14.01,18.08,22.58,15.01,51.68,1011.73,2067.88,1161.41,1520.12,1718.64,599.90,611.63,51.31,0000 0000 0000 0000 000000
2016-04-06 05:27:11,-0.05,10.44,0.00,14.02,18.12,22.67,15.08,51.64,1011.75,2067.37,1161.01,1519.98,1718.02,599.94,611.75,51.36,0000 0000 0000 0000 000000
2016-04-06 05:32:13,0.15,10.44,0.00,14.07,18.17,22.69,15.06,51.83,1011.76,2067.04,1160.50,1519.28,1717.42,599.84,611.54,51.41,0000 0000 0000 0000 000000
2016-04-06 05:37:14,0.06,10.44,0.00,14.12,18.21,22.75,15.09,51.71,1011.85,2067.01,1159.97,1518.85,1716.88,600.04,611.67,51.46,0000 0000 0000 0000 000000
2016-04-06 05:42:15,0.18,10.45,0.00,14.13,18.25,22.78,15.07,51.67,1012.03,2067.00,1159.13,1518.05,1716.04,600.36,612.11,51.51,0000 0000 0000 0000 000000
2016-04-06 05:47:17,0.20,10.46,0.00,14.18,18.29,22.79,15.02,51.76,1012.20,2066.98,1158.17,1517.27,1715.16,600.22,611.91,51.56,0000 0000 0000 0000 000000
2016-04-06 05:52:18,0.17,10.47,0.00,14.23,18.33,22.82,15.03,51.74,1012.22,2066.84,1157.43,1516.53,1714.28,599.89,611.39,51.61,0000 0000 0000 0000 000000
2016-04-06 05:57:20,0.05,10.47,0.00,14.26,18.36,22.85,14.99,51.77,1012.22,2066.34,1156.65,1515.86,1713.60,599.91,611.41,51.66,0000 0000 0000 0000 000000
2016-04-06 06:02:21,0.29,10.49,0.00,14.27,18.40,22.88,15.05,51.89,1012.23,2066.09,1155.05,1514.70,1712.29,600.11,611.48,51.71,0000 0000 0000 0000 000000
2016-04-06 06:07:23,0.40,10.50,0.00,14.28,18.43,22.91,15.07,51.88,1012.23,2066.01,1152.94,1513.28,1710.61,599.99,611.26,51.76,0000 0000 0000 0000 000000
2016-04-06 06:12:24,0.25,10.52,0.00,14.34,18.47,23.00,15.05,51.80,1012.26,2066.00,1151.27,1512.08,1709.26,600.06,611.38,51.82,0000 0000 0000 0000 000000
2016-04-06 06:17:25,0.12,10.52,0.00,14.39,18.50,22.99,15.13,51.92,1012.44,2065.99,1150.79,1511.45,1708.67,600.06,611.47,51.87,0000 0000 0000 0000 000000
2016-04-06 06:22:26,0.09,10.53,0.00,14.39,18.53,23.05,15.15,51.81,1012.67,2065.98,1150.05,1511.01,1708.02,600.20,611.78,51.92,0000 0000 0000 0000 000000
2016-04-06 06:27:28,0.07,10.54,0.00,14.40,18.56,23.04,15.08,51.64,1012.71,2065.91,1149.86,1510.68,1707.62,599.96,611.49,51.97,0000 0000 0000 0000 000000
2016-04-06 06:32:29,0.04,10.54,0.00,14.47,18.58,23.07,15.04,51.52,1012.71,2065.33,1149.08,1510.04,1707.02,599.93,611.32,52.02,0000 0000 0000 0000 000000
2016-04-06 06:37:31,0.02,10.54,0.00,14.50,18.61,23.06,15.03,51.60,1012.71,2065.05,1148.94,1509.93,1706.66,599.77,611.11,52.07,0000 0000 0000 0000 000000
2016-04-06 06:42:32,0.16,10.55,0.00,14.51,18.64,23.11,15.09,51.66,1012.73,2065.02,1148.19,1509.27,1706.06,600.03,611.36,52.12,0000 0000 0000 0000 000000
2016-04-06 06:47:33,0.03,10.55,0.00,14.51,18.67,23.16,15.05,51.70,1012.77,2065.01,1147.95,1508.99,1705.76,600.17,611.44,52.17,0000 0000 0000 0000 000000
2016-04-06 06:52:35,0.16,10.56,0.00,14.58,18.70,23.17,15.09,51.77,1012.80,2065.00,1147.16,1508.56,1705.04,600.05,611.24,52.22,0000 0000 0000 0000 000000
2016-04-06 06:57:36,0.03,10.56,0.00,14.62,18.73,23.20,15.07,51.66,1013.03,2064.99,1146.98,1508.02,1704.90,600.44,611.59,52.27,0000 0000 0000 0000 000000
2016-04-06 07:02:37,0.13,10.57,0.00,14.42,18.74,23.23,15.05,51.65,1013.17,2064.99,1146.28,1507.90,1704.14,599.91,611.60,52.32,0000 0000 0000 0000 000000
2016-04-06 07:57:17,-3333.30,0.00,0.00,13.05,18.92,17.16,13.04,43.63,1013.03,1865.20,3230.31,2896.99,3288.00,526.28,539.38,0.00,0000 0000 0000 0000 000000
2016-04-06 08:11:20,-3333.30,0.00,0.00,12.80,18.43,17.36,14.71,48.88,1013.20,2073.18,3604.01,3218.80,3654.98,590.30,605.29,0.01,0000 0000 0000 0000 000000
2016-04-06 08:16:21,0.01,0.00,0.00,12.82,18.11,18.29,14.86,48.84,1013.51,2071.09,3594.08,3212.80,3648.84,599.80,615.08,0.06,0000 0000 0000 0000 000000
2016-04-06 08:21:23,0.04,0.01,0.00,12.80,17.83,19.00,14.96,48.87,1013.68,2071.76,3589.94,3210.95,3646.82,599.87,615.31,0.11,0000 0000 0000 0000 000000
2016-04-06 08:26:25,0.08,0.02,0.00,12.79,17.61,19.71,15.03,48.94,1013.69,2072.13,3584.84,3208.87,3644.55,599.74,615.27,0.16,0000 0000 0000 0000 000000
2016-04-06 08:31:27,0.19,0.04,0.00,12.80,17.42,20.02,15.03,48.77,1013.74,2072.91,3577.45,3205.82,3641.14,599.84,615.37,0.21,0000 0000 0000 0000 000000
2016-04-06 08:36:29,0.19,0.05,0.00,12.82,17.27,20.12,15.08,48.49,1013.99,2073.49,3573.20,3204.13,3639.21,599.76,615.35,0.26,0000 0000 0000 0000 000000
2016-04-06 08:41:30,0.12,0.05,0.00,12.85,17.15,20.20,15.06,48.65,1014.17,2073.98,3570.83,3203.12,3638.02,600.04,615.72,0.31,0000 0000 0000 0000 000000
2016-04-06 08:46:32,0.14,0.06,0.00,12.90,17.06,20.37,15.06,48.47,1014.18,2074.56,3568.64,3202.14,3636.89,600.13,615.77,0.36,0000 0000 0000 0000 000000
2016-04-06 08:51:34,0.11,0.06,0.00,12.93,16.99,20.51,14.98,48.34,1014.38,2074.99,3566.15,3200.91,3635.50,600.03,615.74,0.41,0000 0000 0000 0000 000000
2016-04-06 08:56:36,0.12,0.07,0.00,12.98,16.94,20.68,15.05,48.37,1014.63,2075.14,3563.34,3199.48,3633.81,599.83,615.57,0.46,0000 0000 0000 0000 000000
2016-04-06 09:01:37,0.14,0.08,0.00,13.02,16.90,20.78,15.10,48.35,1014.66,2075.87,3561.16,3198.39,3632.50,599.96,615.56,0.51,0000 0000 0000 0000 000000
2016-04-06 09:06:39,0.07,0.08,0.00,13.05,16.88,20.89,15.04,48.34,1014.66,2075.99,3559.30,3197.29,3631.22,599.96,615.54,0.56,0000 0000 0000 0000 000000
2016-04-06 09:11:41,0.07,0.09,0.00,13.11,16.87,20.95,15.08,48.08,1014.66,2075.99,3557.51,3196.11,3629.82,600.15,615.59,0.61,0000 0000 0000 0000 000000
2016-04-06 09:16:43,0.07,0.09,0.00,13.15,16.87,21.00,15.04,48.10,1014.73,2076.00,3555.72,3194.98,3628.58,600.06,615.41,0.66,0000 0000 0000 0000 000000
2016-04-06 09:21:45,0.35,0.10,0.00,13.17,16.89,21.07,15.01,48.08,1014.79,2076.04,3548.03,3191.59,3624.69,599.96,615.31,0.71,0000 0000 0000 0000 000000
2016-04-06 09:26:47,0.39,0.12,0.00,13.22,16.90,21.14,15.00,47.87,1015.02,2076.11,3535.62,3186.23,3618.70,599.79,615.22,0.76,0000 0000 0000 0000 000000
2016-04-06 09:31:48,0.23,0.14,0.00,13.29,16.93,21.19,15.03,48.01,1015.14,2076.14,3528.24,3182.55,3614.40,599.59,614.95,0.81,0000 0000 0000 0000 000000
2016-04-06 09:36:49,0.13,0.14,0.00,13.31,16.95,21.28,15.03,47.98,1015.15,2076.08,3524.32,3180.12,3611.68,599.92,615.22,0.86,0000 0000 0000 0000 000000
2016-04-06 09:41:51,0.15,0.15,0.00,13.31,16.98,21.33,15.05,47.88,1015.15,2076.04,3520.67,3177.87,3609.07,600.01,615.25,0.91,0000 0000 0000 0000 000000
2016-04-06 09:46:53,0.14,0.16,0.00,13.38,17.01,21.42,15.11,47.84,1015.15,2076.02,3517.07,3175.48,3606.38,600.69,615.78,0.97,0000 0000 0000 0000 000000
2016-04-06 09:51:54,0.15,0.17,0.00,13.42,17.05,21.49,15.06,47.95,1015.18,2076.01,3513.34,3173.17,3603.74,599.94,615.00,1.02,0000 0000 0000 0000 000000
2016-04-06 09:56:55,0.16,0.18,0.00,13.42,17.09,21.54,14.97,48.08,1015.38,2076.00,3509.54,3170.82,3601.06,599.64,614.87,1.07,0000 0000 0000 0000 000000
2016-04-06 10:01:57,0.15,0.18,0.00,13.42,17.13,21.60,15.13,48.09,1015.62,2075.99,3505.64,3168.43,3598.27,599.98,615.32,1.12,0000 0000 0000 0000 000000
2016-04-06 10:06:58,0.17,0.19,0.00,13.49,17.18,21.64,15.08,48.00,1015.64,2075.96,3501.61,3165.92,3595.33,600.21,615.47,1.17,0000 0000 0000 0000 000000
2016-04-06 10:11:59,0.15,0.20,0.00,13.54,17.22,21.70,15.04,48.01,1015.64,2075.80,3497.28,3163.28,3592.34,600.04,615.15,1.22,0000 0000 0000 0000 000000
2016-04-06 10:17:00,0.14,0.21,0.00,13.53,17.27,21.77,15.05,48.00,1015.64,2075.27,3492.44,3160.48,3589.23,599.92,615.05,1.27,0000 0000 0000 0000 000000
2016-04-06 10:22:02,0.17,0.22,0.00,13.51,17.31,21.82,15.05,48.13,1015.67,2075.06,3487.61,3157.59,3585.99,600.41,615.58,1.32,0000 0000 0000 0000 000000
2016-04-06 10:27:04,0.20,0.22,0.00,13.56,17.36,21.88,15.06,48.09,1015.76,2075.01,3482.59,3154.60,3582.72,599.78,614.95,1.37,0000 0000 0000 0000 000000
2016-04-06 10:32:05,0.22,0.24,0.00,13.61,17.41,21.94,15.08,48.14,1016.01,2075.00,3477.18,3151.41,3579.11,599.71,614.95,1.42,0000 0000 0000 0000 000000
2016-04-06 10:37:06,0.21,0.25,0.00,13.57,17.45,22.06,15.04,48.17,1016.08,2074.97,3471.75,3148.19,3575.47,599.79,615.09,1.47,0000 0000 0000 0000 000000
2016-04-06 10:42:08,0.22,0.26,0.00,13.58,17.49,22.10,15.14,48.19,1016.11,2074.92,3466.02,3144.96,3571.91,600.19,615.60,1.52,0000 0000 0000 0000 000000
2016-04-06 10:47:09,0.17,0.27,0.00,13.65,17.53,22.09,15.09,47.92,1016.13,2074.46,3460.30,3141.66,3568.24,600.25,615.43,1.57,0000 0000 0000 0000 000000
2016-04-06 10:52:11,0.20,0.28,0.00,13.65,17.57,22.12,15.13,47.99,1016.13,2074.06,3454.86,3138.35,3564.33,599.90,615.11,1.62,0000 0000 0000 0000 000000
2016-04-06 10:57:13,0.22,0.29,0.00,13.61,17.61,22.21,15.19,47.94,1016.14,2074.00,3449.33,3135.14,3560.49,600.23,615.51,1.67,0000 0000 0000 0000 000000
2016-04-06 11:02:14,0.23,0.30,0.00,13.63,17.65,22.20,15.09,47.89,1016.15,2074.00,3443.31,3131.88,3556.71,600.01,615.25,1.72,0000 0000 0000 0000 000000
2016-04-06 11:07:16,0.22,0.31,0.00,13.65,17.68,22.15,14.99,47.80,1016.17,2073.97,3437.44,3128.52,3553.03,599.77,614.96,1.77,0000 0000 0000 0000 000000
2016-04-06 11:12:17,0.22,0.32,0.00,13.63,17.72,22.25,15.07,47.91,1016.27,2073.91,3431.80,3125.20,3549.37,599.91,615.35,1.82,0000 0000 0000 0000 000000
2016-04-06 11:17:19,0.17,0.33,0.00,13.61,17.74,22.17,15.05,47.97,1016.38,2073.49,3426.23,3121.88,3545.46,600.05,615.57,1.87,0000 0000 0000 0000 000000
2016-04-06 11:22:20,0.20,0.34,0.00,13.63,17.77,22.06,15.05,48.00,1016.39,2073.06,3420.59,3118.67,3541.75,599.88,615.29,1.92,0000 0000 0000 0000 000000
2016-04-06 11:27:22,0.22,0.35,0.00,13.66,17.80,22.15,15.11,47.78,1016.52,2073.03,3414.97,3115.48,3538.14,600.11,615.50,1.97,0000 0000 0000 0000 000000
2016-04-06 11:32:23,0.21,0.36,0.00,13.62,17.82,22.19,15.10,47.77,1016.56,2073.00,3409.33,3112.31,3534.62,599.94,615.60,2.02,0000 0000 0000 0000 000000
2016-04-06 11:37:24,0.21,0.38,0.00,13.59,17.84,22.14,15.11,47.80,1016.60,2073.00,3404.06,3109.30,3531.17,599.99,615.56,2.07,0000 0000 0000 0000 000000
2016-04-06 11:42:26,0.21,0.39,0.00,13.64,17.87,22.20,15.13,47.91,1016.62,2073.00,3398.93,3106.39,3527.87,600.04,615.50,2.12,0000 0000 0000 0000 000000
2016-04-06 11:47:27,0.21,0.40,0.00,13.65,17.89,22.24,15.06,47.96,1016.62,2072.98,3393.64,3103.35,3524.50,599.73,615.18,2.17,0000 0000 0000 0000 000000
2016-04-06 11:52:29,0.20,0.41,0.00,13.61,17.89,22.22,15.06,47.96,1016.62,2072.97,3388.48,3100.37,3521.08,599.81,615.43,2.22,0000 0000 0000 0000 000000
2016-04-06 11:57:30,0.20,0.42,0.00,13.60,17.92,22.20,15.07,47.85,1016.62,2072.95,3383.30,3097.39,3517.88,599.77,615.31,2.27,0000 0000 0000 0000 000000
2016-04-06 12:02:31,0.18,0.43,0.00,13.64,17.93,22.25,15.11,47.94,1016.62,2072.88,3378.43,3094.61,3514.75,600.27,615.59,2.32,0000 0000 0000 0000 000000
2016-04-06 12:07:33,0.14,0.43,0.00,13.61,17.94,22.15,15.13,47.87,1016.62,2072.43,3373.55,3091.85,3511.68,600.49,616.02,2.37,0000 0000 0000 0000 000000
2016-04-06 12:12:35,0.17,0.44,0.00,13.57,17.94,22.18,15.14,48.03,1016.62,2072.15,3368.74,3089.22,3508.68,600.32,615.97,2.42,0000 0000 0000 0000 000000
2016-04-06 12:17:36,0.18,0.45,0.00,13.59,17.96,22.14,15.14,48.13,1016.62,2072.07,3363.86,3086.48,3505.64,600.41,616.05,2.47,0000 0000 0000 0000 000000
2016-04-06 12:22:37,0.19,0.46,0.00,13.60,17.97,22.19,15.06,47.97,1016.62,2072.04,3358.91,3083.80,3502.59,600.08,615.65,2.52,0000 0000 0000 0000 000000
2016-04-06 12:27:39,0.18,0.47,0.00,13.54,17.98,22.15,15.11,47.97,1016.62,2072.03,3354.09,3081.19,3499.59,600.15,615.80,2.57,0000 0000 0000 0000 000000
2016-04-06 12:32:40,0.14,0.48,0.00,13.52,17.99,22.29,15.13,48.13,1016.61,2072.02,3350.27,3078.96,3497.03,600.17,615.91,2.62,0000 0000 0000 0000 000000
2016-04-06 12:37:42,0.15,0.49,0.00,13.56,18.00,22.17,15.09,47.97,1016.58,2072.00,3346.86,3076.89,3494.61,600.03,615.70,2.67,0000 0000 0000 0000 000000
2016-04-06 12:42:43,0.14,0.49,0.00,13.55,18.02,22.21,15.05,47.94,1016.52,2072.00,3343.28,3074.86,3492.28,599.56,615.21,2.72,0000 0000 0000 0000 000000
2016-04-06 12:47:44,0.14,0.50,0.00,13.50,18.02,22.22,15.07,47.76,1016.48,2072.00,3339.75,3072.74,3489.88,600.22,615.92,2.77,0000 0000 0000 0000 000000
2016-04-06 12:52:46,0.13,0.51,0.00,13.52,18.04,22.19,15.11,47.88,1016.56,2072.00,3336.26,3070.83,3487.62,600.11,615.82,2.82,0000 0000 0000 0000 000000
2016-04-06 12:57:47,0.15,0.52,0.00,13.55,18.04,22.22,15.10,47.89,1016.61,2072.00,3332.70,3068.81,3485.24,599.88,615.59,2.87,0000 0000 0000 0000 000000
2016-04-06 13:02:48,0.14,0.52,0.00,13.50,18.04,22.25,15.03,47.83,1016.62,2071.99,3329.22,3066.75,3482.93,599.49,615.29,2.92,0000 0000 0000 0000 000000
2016-04-06 13:07:49,0.10,0.53,0.00,13.47,18.05,22.30,15.12,47.96,1016.62,2071.98,3326.55,3065.20,3481.09,599.82,615.67,2.97,0000 0000 0000 0000 000000
2016-04-06 13:12:51,0.10,0.53,0.00,13.51,18.07,22.28,15.08,47.97,1016.63,2071.96,3323.97,3063.66,3479.34,599.88,615.72,3.02,0000 0000 0000 0000 000000
2016-04-06 13:17:52,0.09,0.54,0.00,13.50,18.07,22.27,15.11,47.91,1016.66,2071.99,3321.66,3062.31,3477.78,600.18,616.02,3.07,0000 0000 0000 0000 000000
2016-04-06 13:22:53,0.08,0.54,0.00,13.44,18.07,22.21,15.07,47.98,1016.76,2071.99,3319.54,3061.00,3476.35,599.72,615.70,3.13,0000 0000 0000 0000 000000
2016-04-06 13:27:54,0.11,0.55,0.00,13.48,18.07,22.17,15.07,47.95,1016.95,2071.98,3317.05,3059.51,3474.56,599.95,615.99,3.18,0000 0000 0000 0000 000000
2016-04-06 13:32:56,0.12,0.56,0.00,13.48,18.07,22.21,15.15,47.92,1017.10,2071.98,3314.14,3057.81,3472.64,600.47,616.60,3.23,0000 0000 0000 0000 000000
2016-04-06 13:37:57,0.11,0.56,0.00,13.43,18.07,22.20,15.17,48.06,1017.10,2071.98,3311.17,3056.10,3470.68,600.21,616.34,3.28,0000 0000 0000 0000 000000
2016-04-06 13:42:58,0.13,0.57,0.00,13.43,18.06,22.18,15.10,47.96,1017.10,2071.98,3308.05,3054.24,3468.52,600.01,616.24,3.33,0000 0000 0000 0000 000000
2016-04-06 13:47:59,0.15,0.58,0.00,13.45,18.06,22.21,15.12,47.90,1017.11,2071.95,3304.38,3052.11,3466.05,600.03,616.22,3.38,0000 0000 0000 0000 000000
2016-04-06 13:53:00,0.16,0.58,0.00,13.43,18.06,22.23,15.04,47.98,1017.11,2071.95,3300.42,3049.95,3463.58,599.77,616.01,3.43,0000 0000 0000 0000 000000